DW5247 Lemo FI current weather conditions

sailwx.info

Wind from 338 at 3 knots gusting 6

Air temperature 2.2° C
Dewpoint 0.4° C

Last reported at 2017-Nov-18 08:07 UTC.
Time now 2017-Nov-18 08:57 UTC

Location: N 62°41' E 029°49'.
View on Google Maps.

See reports from other nearby stations

  
Tides and Currents Weather Stations Pressure Air Temp Water Temp Dewpoint Dewpoint Depression Visibility Wind Speed Wind Dir Waves Ship Positions
date/time (UTC)wind fromknots sea level pressurealtimeterstation pressurevisibilityair tempwater tempwave heightnotes
2017-Nov-18 08:07 338 3 gusting 6 2.2
2017-Nov-18 08:02 2.2
2017-Nov-18 07:57 338 2 gusting 6 2.2
2017-Nov-18 07:52 315 2 gusting 3 2.2
2017-Nov-18 07:47 023 2 gusting 5 2.2
2017-Nov-18 07:42 023 2 gusting 6 2.2
2017-Nov-18 07:37 023 3 gusting 6 2.2
2017-Nov-18 07:32 338 3 gusting 6 2.2
2017-Nov-18 07:27 315 2 gusting 5 2.2
2017-Nov-18 07:22 023 2 gusting 4 2.2
2017-Nov-18 07:17 338 2 gusting 4 2.2
2017-Nov-18 07:12 023 2 gusting 5 2.2
2017-Nov-18 07:07 338 2 gusting 5 2.2
2017-Nov-18 07:02 315 3 gusting 5 2.2
2017-Nov-18 06:57 2.2
2017-Nov-18 06:52 2.2
2017-Nov-18 06:47 023 2 gusting 6 2.2
2017-Nov-18 06:42 338 2 gusting 5 2.2
2017-Nov-18 06:37 023 2 gusting 5 2.2
2017-Nov-18 06:32 338 2 gusting 5 2.2
2017-Nov-18 06:27 338 2 gusting 6 2.2
2017-Nov-18 06:22 045 2 gusting 6 2.2
2017-Nov-18 06:17 338 3 gusting 6 2.2
2017-Nov-18 06:12 023 3 gusting 5 2.2
2017-Nov-18 06:07 338 2 gusting 5 2.2
2017-Nov-18 06:02 338 3 gusting 7 2.2
2017-Nov-18 05:57 2.2
2017-Nov-18 05:52 338 3 gusting 7 2.2
2017-Nov-18 05:47 315 3 gusting 6 2.2
2017-Nov-18 05:42 068 3 gusting 5 2.2
2017-Nov-18 05:37 315 3 gusting 5 2.2
2017-Nov-18 05:32 270 2 gusting 5 2.2
2017-Nov-18 05:27 023 3 gusting 5 2.2
2017-Nov-18 05:22 023 3 gusting 5 2.2
2017-Nov-18 05:17 045 3 gusting 7 2.2
2017-Nov-18 05:12 2.2
2017-Nov-18 05:07 023 4 gusting 7 2.2
2017-Nov-18 05:02 023 3 gusting 6 2.2
2017-Nov-18 04:57 338 3 gusting 6 2.2
2017-Nov-18 04:52 023 4 gusting 6 2.2
2017-Nov-18 04:47 023 4 gusting 6 2.2
2017-Nov-18 04:42 2.2
2017-Nov-18 04:37 045 3 gusting 6 2.2
2017-Nov-18 04:32 023 3 gusting 6 2.2
2017-Nov-18 04:27 338 3 gusting 6 2.2
2017-Nov-18 04:22 023 2 gusting 4 2.2
2017-Nov-18 04:17 2.2
2017-Nov-18 04:12 023 3 gusting 5 2.2
2017-Nov-18 04:07 023 3 gusting 5 2.2
2017-Nov-18 04:02 023 3 gusting 5 2.2
2017-Nov-18 03:57 315 3 gusting 6 2.2
2017-Nov-18 03:52 068 3 gusting 6 2.2
2017-Nov-18 03:47 023 3 gusting 6 2.2
2017-Nov-18 03:42 2.2
2017-Nov-18 03:37 338 3 gusting 7 2.2
2017-Nov-18 03:32 023 3 gusting 7 2.2
2017-Nov-18 03:27 2.2
2017-Nov-18 03:22 338 2 gusting 5 2.2
2017-Nov-18 03:17 045 2 gusting 6 2.2
2017-Nov-18 03:12 338 3 gusting 6 2.2
2017-Nov-18 03:07 2.2
2017-Nov-18 03:02 2.2
2017-Nov-18 02:57 2.2
2017-Nov-18 02:52 338 3 gusting 8 2.2
2017-Nov-18 02:47 023 2 gusting 8 2.2
2017-Nov-18 02:42 315 1 gusting 3 2.2
2017-Nov-18 02:37 2.2
2017-Nov-18 02:32 023 2 gusting 6 2.2
2017-Nov-18 02:27 023 2 gusting 4 2.2
2017-Nov-18 02:22 045 2 gusting 4 2.2
2017-Nov-18 02:17 2.2
2017-Nov-18 02:12 338 1 gusting 3 2.2
2017-Nov-18 02:07 338 1 gusting 4 2.2
2017-Nov-18 02:02 023 1 gusting 5 2.2
2017-Nov-18 01:57 338 2 gusting 5 2.2
2017-Nov-18 01:52 338 2 gusting 5 2.2
2017-Nov-18 01:47 023 2 gusting 5 2.2
2017-Nov-18 01:42 023 3 gusting 5 2.2
2017-Nov-18 01:37 023 3 gusting 5 2.2
2017-Nov-18 01:32 045 2 gusting 4 2.2
2017-Nov-18 01:27 315 2 gusting 4 2.2
2017-Nov-18 01:22 2.2
2017-Nov-18 01:17 023 2 gusting 4 2.2
2017-Nov-18 01:12 023 2 gusting 4 2.2
2017-Nov-18 01:07 338 2 gusting 4 2.2
2017-Nov-18 01:02 338 2 gusting 3 2.2
2017-Nov-18 00:57 023 2 gusting 5 2.2
2017-Nov-18 00:52 2.2
2017-Nov-18 00:47 2.2
2017-Nov-18 00:42 158 2 gusting 6 2.2
2017-Nov-18 00:37 023 2 gusting 6 2.2
2017-Nov-18 00:32 023 2 gusting 8 2.2
2017-Nov-18 00:27 338 2 gusting 8 2.2
2017-Nov-18 00:22 338 2 gusting 2 2.2
2017-Nov-18 00:17 023 2 gusting 3 2.2
2017-Nov-18 00:12 338 1 gusting 3 2.2
2017-Nov-18 00:07 315 1 gusting 4 2.2
2017-Nov-18 00:02 2.2
2017-Nov-17 23:57 2.2
2017-Nov-17 23:52 270 2 gusting 6 2.2
2017-Nov-17 23:47 338 1 gusting 6 2.2
2017-Nov-17 23:42 2.2
2017-Nov-17 23:37 023 1 gusting 5 2.2
2017-Nov-17 23:32 2.2
2017-Nov-17 23:27 045 2 gusting 6 2.8
2017-Nov-17 23:22 023 3 gusting 6 2.2
2017-Nov-17 23:17 023 3 gusting 5 2.2
2017-Nov-17 23:12 023 3 gusting 6 2.8
2017-Nov-17 23:07 338 3 gusting 6 2.8
2017-Nov-17 23:02 023 3 gusting 6 2.2
2017-Nov-17 22:57 023 2 gusting 6 2.8
2017-Nov-17 22:52 2.2
2017-Nov-17 22:47 023 2 gusting 6 2.2
2017-Nov-17 22:42 023 3 gusting 7 2.2
2017-Nov-17 22:37 023 3 gusting 7 2.8
2017-Nov-17 22:32 135 3 gusting 7 2.2
2017-Nov-17 22:27 068 2 gusting 6 2.2
2017-Nov-17 22:22 315 3 gusting 6 2.2
2017-Nov-17 22:17 023 3 gusting 6 2.8
2017-Nov-17 22:12 2.8
2017-Nov-17 22:07 2.8
2017-Nov-17 21:57 338 3 gusting 6 2.8
2017-Nov-17 21:52 293 3 gusting 6 2.8
2017-Nov-17 21:47 248 4 gusting 7 2.8
2017-Nov-17 21:42 315 4 gusting 7 2.8
2017-Nov-17 21:37 338 4 gusting 7 2.8
2017-Nov-17 21:32 2.8
2017-Nov-17 21:27 023 3 gusting 6 2.8
2017-Nov-17 21:22 338 3 gusting 6 2.8
2017-Nov-17 21:17 023 4 gusting 5 2.8
2017-Nov-17 21:12 023 4 gusting 5 2.2
2017-Nov-17 21:07 068 3 gusting 6 2.8
2017-Nov-17 21:02 338 3 gusting 6 2.8
2017-Nov-17 20:57 338 3 gusting 6 2.8
2017-Nov-17 20:52 338 3 gusting 6 2.8
2017-Nov-17 20:47 045 4 gusting 6 2.8
2017-Nov-17 20:42 338 4 gusting 6 2.8
2017-Nov-17 20:37 315 4 gusting 11 2.8
2017-Nov-17 20:32 338 4 gusting 11 2.8
2017-Nov-17 20:27 338 4 gusting 11 2.8
2017-Nov-17 20:22 2.8
2017-Nov-17 20:17 023 4 gusting 7 2.2
2017-Nov-17 20:12 068 4 gusting 7 2.2
2017-Nov-17 20:07 023 4 gusting 5 2.8
2017-Nov-17 20:02 090 3 gusting 7 2.2
2017-Nov-17 19:57 338 3 gusting 7 2.8
2017-Nov-17 19:52 023 3 gusting 7 2.8
2017-Nov-17 19:47 023 4 gusting 6 2.8
2017-Nov-17 19:42 293 4 gusting 10 2.8
2017-Nov-17 19:37 023 4 gusting 10 2.8
2017-Nov-17 19:32 045 5 gusting 10 2.8
2017-Nov-17 19:27 045 5 gusting 10 2.8
2017-Nov-17 19:22 023 4 gusting 9 2.8
2017-Nov-17 19:17 315 5 gusting 11 2.8
2017-Nov-17 19:12 023 6 gusting 11 2.8
2017-Nov-17 19:07 338 6 gusting 8 2.8
2017-Nov-17 19:02 2.8
2017-Nov-17 18:57 023 5 gusting 8 2.8
2017-Nov-17 18:52 023 4 gusting 8 2.8
2017-Nov-17 18:47 023 4 gusting 9 2.8
2017-Nov-17 18:42 090 5 gusting 9 2.8
2017-Nov-17 18:37 023 5 gusting 17 2.8
2017-Nov-17 18:32 023 5 gusting 17 2.8
2017-Nov-17 18:27 045 6 gusting 13 2.8
2017-Nov-17 18:22 023 6 gusting 13 2.8
2017-Nov-17 18:17 315 6 gusting 13 2.8
2017-Nov-17 18:12 2.8
2017-Nov-17 18:07 338 5 gusting 7 2.8
2017-Nov-17 18:02 023 5 gusting 7 2.8
2017-Nov-17 17:57 023 4 gusting 7 2.8
2017-Nov-17 17:52 338 4 gusting 7 2.8
2017-Nov-17 17:47 045 4 gusting 7 2.8
2017-Nov-17 17:42 2.8
2017-Nov-17 17:37 2.8
2017-Nov-17 17:32 023 4 gusting 7 2.8
2017-Nov-17 17:22 023 4 gusting 6 2.8
2017-Nov-17 17:17 338 5 gusting 6 3.3
2017-Nov-17 17:12 3.3
2017-Nov-17 17:07 023 6 gusting 7 2.8
2017-Nov-17 17:02 2.8
2017-Nov-17 16:57 3.3
2017-Nov-17 16:52 023 5 gusting 8 3.3
2017-Nov-17 16:42 3.3
2017-Nov-17 16:37 023 5 gusting 7 3.3
2017-Nov-17 16:27 3.3
2017-Nov-17 16:22 338 5 gusting 7 3.3
2017-Nov-17 16:17 3.3
2017-Nov-17 16:12 338 4 gusting 8 3.3
2017-Nov-17 16:07 023 4 gusting 8 3.3
2017-Nov-17 16:02 3.3
2017-Nov-17 15:57 023 4 gusting 6 3.3
2017-Nov-17 15:52 338 4 gusting 6 3.3
2017-Nov-17 15:37 023 4 gusting 7 3.3
2017-Nov-17 15:32 023 3 gusting 6 3.3
2017-Nov-17 15:27 023 3 gusting 6 3.3
2017-Nov-17 15:22 3.3
2017-Nov-17 15:17 203 4 gusting 7 3.3
2017-Nov-17 15:12 023 4 gusting 7 3.3
2017-Nov-17 15:07 338 4 gusting 8 3.3
2017-Nov-17 15:02 338 5 gusting 8 3.3
2017-Nov-17 14:52 023 4 gusting 6 3.3
2017-Nov-17 14:47 023 3 gusting 6 3.3
2017-Nov-17 14:42 315 4 gusting 7 2.8
2017-Nov-17 14:37 338 4 gusting 8 2.8
2017-Nov-17 14:32 3.3
2017-Nov-17 14:27 338 4 gusting 8 3.3
2017-Nov-17 14:22 338 3 gusting 5 2.8
2017-Nov-17 14:12 2.8
2017-Nov-17 14:07 338 3 gusting 8 2.8
2017-Nov-17 13:57 315 3 gusting 8 2.8
2017-Nov-17 13:52 315 4 gusting 8 2.8
2017-Nov-17 13:42 023 4 gusting 6 2.8
2017-Nov-17 13:37 338 4 gusting 6 2.8
2017-Nov-17 13:32 023 4 gusting 6 2.2
2017-Nov-17 13:27 293 3 gusting 7 2.2
2017-Nov-17 13:12 315 2 gusting 5 1.7
2017-Nov-17 13:07 338 2 gusting 5 1.7
2017-Nov-17 13:02 338 1 gusting 5 1.7
2017-Nov-17 12:52 315 1 gusting 3 1.7
2017-Nov-17 12:47 023 0 gusting 5 1.7
2017-Nov-17 12:42 338 1 gusting 5 1.7
2017-Nov-17 12:37 338 2 gusting 5 1.7
2017-Nov-17 12:32 248 2 gusting 5 1.7
2017-Nov-17 12:27 315 3 gusting 4 1.7
2017-Nov-17 12:22 315 2 gusting 4 1.7
2017-Nov-17 12:17 293 2 gusting 4 1.7
2017-Nov-17 12:12 315 2 gusting 3 1.7
2017-Nov-17 12:07 315 1 gusting 6 1.7
2017-Nov-17 12:02 315 2 gusting 6 1.7
2017-Nov-17 11:57 293 3 gusting 6 1.7
2017-Nov-17 11:52 315 2 gusting 4 1.7
2017-Nov-17 11:47 338 2 gusting 5 1.7
2017-Nov-17 11:42 315 2 gusting 5 1.7
2017-Nov-17 11:37 338 2 gusting 4 1.7
2017-Nov-17 11:32 315 1 gusting 2 1.7
2017-Nov-17 11:27 315 0 gusting 3 1.7
2017-Nov-17 11:22 315 1 gusting 3 1.7
2017-Nov-17 11:17 270 1 gusting 5 1.7
2017-Nov-17 11:12 315 0 gusting 5 1.7
2017-Nov-17 11:07 248 1 gusting 5 1.1
2017-Nov-17 11:02 315 1 gusting 3 1.1
2017-Nov-17 10:57 338 1 gusting 4 1.1
2017-Nov-17 10:52 315 1 gusting 4 1.1
2017-Nov-17 10:47 270 1 gusting 3 1.1
2017-Nov-17 10:42 270 1 gusting 3 1.1
2017-Nov-17 10:37 225 1 gusting 2 1.1
2017-Nov-17 10:32 293 1 gusting 5 1.1
2017-Nov-17 10:27 270 1 gusting 5 1.1
2017-Nov-17 10:22 293 1 gusting 3 1.1
2017-Nov-17 10:17 270 1 gusting 3 1.7
2017-Nov-17 10:12 248 0 gusting 3 1.1
2017-Nov-17 10:07 315 1 gusting 3 1.1
2017-Nov-17 10:02 315 1 gusting 3 1.1
2017-Nov-17 09:57 270 2 gusting 5 1.1
2017-Nov-17 09:52 315 1 gusting 5 1.1
2017-Nov-17 09:47 180 1 gusting 4 1.1
2017-Nov-17 09:42 293 1 gusting 4 1.1
2017-Nov-17 09:37 270 1 gusting 4 1.1
2017-Nov-17 09:32 315 1 gusting 3 1.1
2017-Nov-17 09:27 225 1 gusting 4 1.7
2017-Nov-17 09:22 315 1 gusting 4 1.1
2017-Nov-17 09:17 270 0 gusting 6 1.1
2017-Nov-17 09:12 315 0 gusting 6 1.1
2017-Nov-17 09:07 270 1 gusting 6 1.7
2017-Nov-17 09:02 270 1 gusting 4 1.1
2017-Nov-17 08:57 293 1 gusting 4 1.1
2017-Nov-17 08:52 248 1 gusting 4 1.1
2017-Nov-17 08:47 270 2 gusting 4 1.1
2017-Nov-17 08:42 270 1 gusting 2 1.1
2017-Nov-17 08:37 315 1 gusting 3 1.1
2017-Nov-17 08:32 315 1 gusting 3 1.1
2017-Nov-17 08:27 270 1 gusting 2 1.1
2017-Nov-17 08:22 270 1 gusting 2 1.1
2017-Nov-17 08:17 270 1 gusting 2 1.1
2017-Nov-17 08:12 180 0 gusting 2 1.1
2017-Nov-17 08:07 248 1.1
2017-Nov-17 08:02 315 1.1
2017-Nov-17 07:57 293 1.1
2017-Nov-17 07:52 315 1.1
2017-Nov-17 07:47 270 1.1
2017-Nov-17 07:42 315 1.1
2017-Nov-17 07:37 270 1.1
2017-Nov-17 07:32 293 1.1
2017-Nov-17 07:27 248 1.1
2017-Nov-17 07:22 225 1.1
2017-Nov-17 07:17 315 1.1
2017-Nov-17 07:12 203 1.1
2017-Nov-17 07:07 270 1.1
2017-Nov-17 07:02 315 1.1
2017-Nov-17 06:57 270 1.1
2017-Nov-17 06:52 248 1.1
2017-Nov-17 06:47 293 1.1
2017-Nov-17 06:42 023 1.1
2017-Nov-17 06:37 315 1.1
2017-Nov-17 06:32 045 1.1
2017-Nov-17 06:27 270 1.1
2017-Nov-17 06:22 203 1.1
2017-Nov-17 06:17 315 1.1
2017-Nov-17 06:12 293 1.1
2017-Nov-17 06:07 293 1.1
2017-Nov-17 06:02 315 0.6
2017-Nov-17 05:57 203 0.6
2017-Nov-17 05:52 315 0.6
2017-Nov-17 05:47 293 1.1
2017-Nov-17 05:42 270 1.1
2017-Nov-17 05:37 270 0.6
2017-Nov-17 05:32 293 0.6
2017-Nov-17 05:27 248 0.6
2017-Nov-17 05:22 315 1.1
2017-Nov-17 05:17 068 0.6
2017-Nov-17 05:12 293 0.6
2017-Nov-17 05:07 338 1.1
2017-Nov-17 05:02 315 1.1
2017-Nov-17 04:57 315 1.1
2017-Nov-17 04:52 338 1.1
2017-Nov-17 04:47 293 1.1
2017-Nov-17 04:42 315 1.1
2017-Nov-17 04:37 315 1.1
2017-Nov-17 04:32 180 1.1
2017-Nov-17 04:27 068 1.1
2017-Nov-17 04:22 315 1.1
2017-Nov-17 04:17 293 1.1
2017-Nov-17 04:12 270 1.1
2017-Nov-17 04:07 315 1.1
2017-Nov-17 04:02 315 1.1
2017-Nov-17 03:57 338 1.1
2017-Nov-17 03:52 315 1.1
2017-Nov-17 03:47 338 1.1
2017-Nov-17 03:42 045 1.1
2017-Nov-17 03:37 293 0.6
2017-Nov-17 03:32 338 0.6
2017-Nov-17 03:27 023 1.1
2017-Nov-17 03:22 338 0.6
2017-Nov-17 03:17 315 0.6
2017-Nov-17 03:12 315 0.6
2017-Nov-17 03:07 023 0.6
2017-Nov-17 03:02 023 0.6
2017-Nov-17 02:57 338 0.6
2017-Nov-17 02:52 068 0.6
2017-Nov-17 02:47 338 0.6
2017-Nov-17 02:42 180 0.6
2017-Nov-17 02:37 248 0.6
2017-Nov-17 02:32 338 0.6
2017-Nov-17 02:27 315 0.6
2017-Nov-17 02:22 270 0.6
2017-Nov-17 02:17 023 0.6
2017-Nov-17 02:12 338 0.6
2017-Nov-17 02:07 338 0.6
2017-Nov-17 02:02 023 0.6
2017-Nov-17 01:57 315 -0.0
2017-Nov-17 01:52 045 -0.0
2017-Nov-17 01:47 023 -0.0
2017-Nov-17 01:42 -0.0
2017-Nov-17 01:37 293 -0.0
2017-Nov-17 01:32 338 -0.0
2017-Nov-17 01:27 023 -0.0
2017-Nov-17 01:22 -0.0
2017-Nov-17 01:17 338 -0.0
2017-Nov-17 01:12 045 -0.0
2017-Nov-17 01:07 045 -0.6
2017-Nov-17 01:02 045 -0.6
2017-Nov-17 00:57 -0.6
2017-Nov-17 00:52 203 -0.6
2017-Nov-17 00:47 315 -0.6
2017-Nov-17 00:42 023 -0.6
2017-Nov-17 00:37 338 -0.6
2017-Nov-17 00:32 045 -0.6
2017-Nov-17 00:27 -0.6
2017-Nov-17 00:22 023 -0.6
2017-Nov-17 00:17 045 -0.6
2017-Nov-17 00:12 023 -0.6
2017-Nov-17 00:07 023 -0.6
2017-Nov-17 00:02 203 -0.6
2017-Nov-16 23:57 023 -0.6
2017-Nov-16 23:52 -0.6
2017-Nov-16 23:47 338 -0.6
2017-Nov-16 23:42 338 -0.6
2017-Nov-16 23:37 045 -0.6
2017-Nov-16 23:32 -0.6
2017-Nov-16 23:27 203 -0.6
2017-Nov-16 23:22 315 -0.6
2017-Nov-16 23:17 338 -0.6
2017-Nov-16 23:12 045 -0.6
2017-Nov-16 23:07 338 -0.6
2017-Nov-16 23:02 068 -0.6
2017-Nov-16 22:57 045 -0.6
2017-Nov-16 22:52 113 -0.6
2017-Nov-16 22:47 045 -0.6
2017-Nov-16 22:42 315 -0.6
2017-Nov-16 22:37 068 -0.6
2017-Nov-16 22:32 158 -0.6
2017-Nov-16 22:27 068 -0.6
2017-Nov-16 22:22 090 -0.6
2017-Nov-16 22:17 090 -0.6
2017-Nov-16 22:12 068 -0.6
2017-Nov-16 22:07 045 -0.6
2017-Nov-16 21:57 113 -0.6
2017-Nov-16 21:52 023 -0.6
2017-Nov-16 21:47 068 -0.6
2017-Nov-16 21:42 023 -0.6
2017-Nov-16 21:37 045 -0.6
2017-Nov-16 21:32 023 -0.6
2017-Nov-16 21:27 338 -0.6
2017-Nov-16 21:22 068 -0.6
2017-Nov-16 21:17 023 -0.6
2017-Nov-16 21:12 023 -0.6
2017-Nov-16 21:07 135 -0.6
2017-Nov-16 21:02 045 -0.6
2017-Nov-16 20:57 -0.6
2017-Nov-16 20:52 023 -0.6
2017-Nov-16 20:47 315 -0.6
2017-Nov-16 20:42 023 -0.6
2017-Nov-16 20:37 045 -0.0
2017-Nov-16 20:32 023 -0.0
2017-Nov-16 20:27 113 -0.0
2017-Nov-16 20:22 -0.0
2017-Nov-16 20:17 -0.0
2017-Nov-16 20:12 023 -0.0
2017-Nov-16 20:07 045 -0.0
2017-Nov-16 20:02 023 -0.0
2017-Nov-16 19:57 023 -0.0
2017-Nov-16 19:52 023 -0.0
2017-Nov-16 19:47 023 -0.0
2017-Nov-16 19:42 023 -0.0
2017-Nov-16 19:37 158 -0.0
2017-Nov-16 19:32 180 -0.0
2017-Nov-16 19:27 023 -0.0
2017-Nov-16 19:22 203 -0.0
2017-Nov-16 19:17 090 -0.0
2017-Nov-16 19:12 023 -0.0
2017-Nov-16 19:07 113 -0.0
2017-Nov-16 19:02 113 -0.0
2017-Nov-16 18:57 068 -0.0
2017-Nov-16 18:52 135 -0.0
2017-Nov-16 18:47 023 -0.0
2017-Nov-16 18:42 068 -0.0
2017-Nov-16 18:37 045 -0.0
2017-Nov-16 18:32 045 -0.0
2017-Nov-16 18:27 -0.0
2017-Nov-16 18:22 045 0.6
2017-Nov-16 18:17 023 -0.0
2017-Nov-16 18:12 023 0.6
2017-Nov-16 18:07 0.6
2017-Nov-16 18:02 068 0.6
2017-Nov-16 17:57 023 0.6
2017-Nov-16 17:52 068 0.6
2017-Nov-16 17:47 090 0.6
2017-Nov-16 17:42 045 0.6
2017-Nov-16 17:37 113 -0.0
2017-Nov-16 17:32 293 -0.0
2017-Nov-16 17:27 045 -0.0
2017-Nov-16 17:22 045 -0.0
2017-Nov-16 17:17 045 -0.0
2017-Nov-16 17:12 113 -0.0
2017-Nov-16 17:07 068 -0.0
2017-Nov-16 17:02 135 -0.0
2017-Nov-16 16:57 023 -0.0
2017-Nov-16 16:52 023 -0.0
2017-Nov-16 16:47 068 -0.0
2017-Nov-16 16:42 045 -0.0
2017-Nov-16 16:37 023 0.6
2017-Nov-16 16:32 113 0.6
2017-Nov-16 16:27 113 0.6
2017-Nov-16 16:22 068 0.6
2017-Nov-16 16:17 0.6
2017-Nov-16 16:12 158 0.6
2017-Nov-16 16:07 023 0.6
2017-Nov-16 16:02 113 0.6
2017-Nov-16 15:57 023 0.6
2017-Nov-16 15:52 068 0.6
2017-Nov-16 15:47 338 0.6
2017-Nov-16 15:42 023 0.6
2017-Nov-16 15:37 045 0.6
2017-Nov-16 15:32 023 0.6
2017-Nov-16 15:27 045 0.6
2017-Nov-16 15:22 068 0.6
2017-Nov-16 15:17 023 0.6
2017-Nov-16 15:12 158 0.6
2017-Nov-16 15:07 068 0.6
2017-Nov-16 15:02 068 0.6
2017-Nov-16 14:57 068 0.6
2017-Nov-16 14:52 023 0.6
2017-Nov-16 14:47 023 0.6
2017-Nov-16 14:42 023 0.6
2017-Nov-16 14:37 0.6
2017-Nov-16 14:32 045 0.6
2017-Nov-16 14:27 023 0.6
2017-Nov-16 14:22 045 0.6
2017-Nov-16 14:17 023 0.6
2017-Nov-16 14:12 090 0.6
2017-Nov-16 14:07 023 0.6
2017-Nov-16 14:02 045 0.6
2017-Nov-16 13:57 023 0.6
2017-Nov-16 13:52 068 0.6
2017-Nov-16 13:47 045 0.6
2017-Nov-16 13:42 068 0.6
2017-Nov-16 13:37 023 0.6
2017-Nov-16 13:32 023 0.6
2017-Nov-16 13:27 338 0.6
2017-Nov-16 13:22 045 0.6
2017-Nov-16 13:17 135 0.6
2017-Nov-16 13:12 045 0.6
2017-Nov-16 13:07 113 0.6
2017-Nov-16 13:02 135 0.6
2017-Nov-16 12:57 113 1.1
2017-Nov-16 12:52 068 1.1
2017-Nov-16 12:47 045 1.1
2017-Nov-16 12:42 068 1.1
2017-Nov-16 12:37 068 1.1
2017-Nov-16 12:32 068 1.1
2017-Nov-16 12:27 068 1.1
2017-Nov-16 12:22 068 1.1
2017-Nov-16 12:17 068 1.1
2017-Nov-16 12:12 068 1.1
2017-Nov-16 12:07 023 1.1
2017-Nov-16 12:02 068 1.1
2017-Nov-16 11:57 113 1.1
2017-Nov-16 11:52 045 1.1
2017-Nov-16 11:47 113 1.1
2017-Nov-16 11:42 045 1.1
2017-Nov-16 11:37 068 1.1
2017-Nov-16 11:32 338 1.1
2017-Nov-16 11:27 113 1.1
2017-Nov-16 11:22 068 1.1
2017-Nov-16 11:07 135 1.1
2017-Nov-16 11:02 135 1.1
2017-Nov-16 10:57 135 0.6
2017-Nov-16 10:52 045 0.6
2017-Nov-16 10:47 045 0.6
2017-Nov-16 10:42 045 0.6
2017-Nov-16 10:37 113 0.6
2017-Nov-16 10:32 023 0.6
2017-Nov-16 10:27 023 0.6
2017-Nov-16 10:22 023 0.6
2017-Nov-16 10:17 135 0.6
2017-Nov-16 10:12 203 0.6
2017-Nov-16 10:07 045 0.6
2017-Nov-16 10:02 045 0.6
2017-Nov-16 09:57 090 0.6
2017-Nov-16 09:52 023 0.6
2017-Nov-16 09:47 068 0.6
2017-Nov-16 09:42 090 0.6
2017-Nov-16 09:37 023 0.6
2017-Nov-16 09:32 338 0.6
2017-Nov-16 09:27 045 0.6
2017-Nov-16 09:22 023 -0.0
2017-Nov-16 09:17 023 0.6
2017-Nov-16 09:12 0.6
2017-Nov-16 09:07 045 -0.0
2017-Nov-16 09:02 023 -0.0
2017-Nov-16 08:57 023 -0.0
2017-Nov-16 08:52 023 -0.0
2017-Nov-16 08:47 023 -0.0
2017-Nov-16 08:42 023 -0.0
2017-Nov-16 08:37 068 -0.0
2017-Nov-16 08:32 068 -0.0
2017-Nov-16 08:27 045 -0.0
2017-Nov-16 08:22 023 -0.0
2017-Nov-16 08:17 045 -0.0
2017-Nov-16 08:12 023 -0.6
2017-Nov-16 08:07 023 -0.6
2017-Nov-16 08:02 045 -0.6